[[{"header":{"parameterUnit":"m.s-1","parameterCategory":1,"la1":30.2991,"la2":30.254,"lo1":-89.0895,"lo2":-89.0444,"dy":0.0017,"dx":0.0017,"nx":28,"ny":28,"refTime":"2024-06-30T03:00:00:Z","depth":0,"parameterNumber":2,"parameterNumberName":"U-component_of_WINDS"},"data":[0,0,0,0,0,0,0,0,0,0,0,0,0,0,0,0,0,0,0,0,0,0,0,0,0,0,0,0,0,0,0,0,0,0,0,0,0,0,0,0,0,0,0,0,0,0,0,0,0,0,0,0,0,0,0,0,0,0,1.3579,1.358,0,1.3619,1.3619,1.362,1.3649,1.3649,1.3649,1.3649,1.3689,1.369,1.3691,0,0,0,0,0,0,0,0,0,0,0,0,0,1.353,1.3531,1.3579,1.358,1.358,1.3619,1.3619,1.362,1.3649,1.3649,1.3649,1.3649,1.3689,1.369,1.3691,0,0,0,0,0,0,0,0,0,0,0,0,0,1.3558,1.3531,1.3579,1.3599,1.3602,1.3619,1.3619,1.362,1.3649,1.3649,1.3649,1.365,1.3688,1.369,1.3691,1.3691,0,0,1.3695,1.3695,0,0,0,0,0,0,0,0,1.3557,1.356,1.3596,1.3598,1.3601,1.3629,1.3616,1.3644,1.3648,1.3631,1.3649,1.365,1.3669,1.3672,1.3678,1.3693,1.3694,1.3695,1.3696,1.3696,1.3696,0,0,0,0,0,0,0,1.3555,1.3559,1.3595,1.3596,1.3599,1.3607,1.3611,1.3622,1.3647,1.3632,1.3634,1.3639,1.367,1.3677,1.3679,1.3695,1.3695,1.3696,1.3697,1.3697,1.3713,1.3713,0,0,0,0,0,0,1.355,1.3557,1.3594,1.3596,1.3579,1.3607,1.3612,1.362,1.3647,1.3652,1.3638,1.364,1.3675,1.3678,1.3681,1.3684,1.3696,1.3697,1.3698,1.3714,1.3713,1.3713,0,0,0,0,0,0,1.3549,1.3553,1.3592,1.3577,1.3583,1.3608,1.3616,1.362,1.3627,1.3652,1.3656,1.3641,1.3675,1.3679,1.3689,1.3685,1.3698,1.3699,1.3714,1.3714,1.3713,1.3688,0,0,0,0,0,0,1.3547,1.3552,1.3552,1.3577,1.3583,1.3599,1.3615,1.3621,1.3629,1.3632,1.3655,1.3659,1.3676,1.3687,1.369,1.3687,1.37,1.3714,1.3714,1.3713,1.3689,1.3687,1.3685,0,0,0,0,0,1.3545,1.3543,1.3552,1.3556,1.3584,1.3599,1.3602,1.3621,1.3629,1.3629,1.3645,1.3659,1.3685,1.3687,1.3691,1.3689,1.3715,1.3714,1.3713,1.369,1.3687,1.3685,0,0,0,0,0,0,1.3516,1.3546,1.3557,1.3562,1.3578,1.3603,1.3604,1.3617,1.3631,1.3632,1.3655,1.366,1.3668,1.3679,1.3681,1.3691,1.3702,1.3702,1.3683,1.368,1.3678,1.3675,1.3701,0,0,0,0,0,1.351,1.352,1.3546,1.3548,1.3556,1.3579,1.3586,1.3599,1.3616,1.3623,1.3639,1.3655,1.3667,1.3675,1.3687,1.3692,1.3698,1.3692,1.369,1.3688,1.3687,1.3692,1.369,1.3711,1.3711,1.3711,0,0,1.3499,1.3516,1.3521,1.3543,1.3557,1.3566,1.3584,1.3593,1.36,1.3624,1.3634,1.3647,1.3666,1.3674,1.3678,1.3684,1.3683,1.3687,1.3685,1.3686,1.3691,1.3689,1.3687,1.371,1.371,1.371,0,0,1.3482,1.3496,1.35,1.3514,1.3535,1.355,1.3551,1.3576,1.3585,1.3596,1.3614,1.3624,1.3644,1.3657,1.3667,1.3657,1.367,1.3661,1.3648,1.3653,1.3651,1.365,1.3647,1.3645,1.3661,1.3661,1.366,0,1.3464,1.3479,1.3501,1.3509,1.3519,1.3542,1.3547,1.3559,1.3582,1.3589,1.3595,1.3622,1.3636,1.3648,1.3646,1.3653,1.3655,1.3658,1.3649,1.3648,1.3647,1.3645,1.3644,1.3659,1.3659,1.366,1.366,0,1.3457,1.3467,1.3468,1.3491,1.3501,1.3508,1.3531,1.3538,1.3552,1.3567,1.3578,1.3597,1.3614,1.3618,1.3631,1.3632,1.3635,1.3645,1.3656,1.3644,1.3642,1.3641,1.3657,1.3658,1.3658,1.3659,0,0,1.3421,1.3457,1.3457,1.3469,1.3494,1.3503,1.3511,1.3528,1.3535,1.3551,1.3558,1.3576,1.3586,1.3597,1.3612,1.3615,1.3608,1.3626,1.3626,1.3622,1.3611,1.3602,1.3601,1.3617,1.3617,1.3617,1.3609,0,1.3408,1.3424,1.3445,1.3454,1.3464,1.3487,1.3494,1.3511,1.3526,1.3537,1.3554,1.3566,1.3579,1.3585,1.359,1.3608,1.3606,1.3609,1.3624,1.3625,1.3618,1.36,1.3591,1.3582,1.3608,1.3608,1.3608,0,1.3394,1.341,1.342,1.3447,1.3452,1.3458,1.3476,1.3487,1.3507,1.3517,1.353,1.3547,1.3557,1.3568,1.3583,1.3585,1.3593,1.3603,1.3603,1.3604,1.3615,1.3601,1.358,1.3578,1.3607,1.3607,1.3607,0,1.3367,1.3391,1.3401,1.341,1.344,1.3444,1.3457,1.3478,1.3487,1.3504,1.351,1.3528,1.3537,1.355,1.3571,1.3577,1.3584,1.3596,1.3594,1.3593,1.3593,1.3593,1.3573,1.3599,1.3599,1.3599,1.3599,0,1.335,1.3356,1.3389,1.3395,1.3402,1.3426,1.3433,1.3448,1.3466,1.3476,1.3497,1.3506,1.3533,1.3545,1.3562,1.3572,1.3576,1.3585,1.359,1.3583,1.3582,1.3588,1.3589,1.3599,1.3599,1.3599,1.3599,0,1.3321,1.3343,1.3355,1.3384,1.3391,1.3395,1.342,1.3427,1.3444,1.3456,1.346,1.3487,1.3502,1.3525,1.3547,1.3558,1.3566,1.3573,1.3559,1.3562,1.3558,1.3558,1.3541,1.354,1.3567,1.3566,1.3566,0,1.3308,1.3313,1.3342,1.3351,1.3363,1.3376,1.3386,1.3411,1.3421,1.3446,1.345,1.3467,1.3482,1.3506,1.3527,1.3544,1.3552,1.3545,1.3554,1.3548,1.3552,1.3551,1.3552,1.3542,1.3542,1.3541,1.3541,0,1.3283,1.3294,1.3308,1.3327,1.3339,1.3355,1.3372,1.3377,1.3406,1.3416,1.3433,1.3445,1.3468,1.3485,1.3506,1.352,1.3535,1.3538,1.3539,1.3532,1.3523,1.3528,1.3553,1.3538,1.3538,1.3539,1.3539,1.3539,1.3261,1.3267,1.3289,1.3305,1.3321,1.3336,1.3344,1.3363,1.3377,1.3398,1.3413,1.3428,1.345,1.348,1.3493,1.3506,1.3513,1.3513,1.3513,1.3512,1.351,1.3522,1.351,1.351,1.351,1.351,1.351,0,1.3237,1.3253,1.3267,1.3291,1.3304,1.3318,1.3338,1.3348,1.3361,1.3381,1.3395,1.3415,1.3432,1.3456,1.3475,1.3481,1.3489,1.3485,1.3485,1.3488,1.3503,1.3501,1.3479,1.3479,1.3479,1.3479,1.3479,1.3479,1.3226,1.3237,1.3251,1.3271,1.3287,1.3303,1.3313,1.3328,1.3344,1.3365,1.3379,1.3395,1.3416,1.3437,1.3454,1.3461,1.3467,1.3461,1.347,1.3484,1.3486,1.3489,1.3487,1.3462,1.3462,1.3453,1.3453,1.3453]},{"header":{"parameterUnit":"m.s-1","parameterCategory":1,"la1":30.2991,"la2":30.254,"lo1":-89.0895,"lo2":-89.0444,"dy":0.0017,"dx":0.0017,"nx":28,"ny":28,"refTime":"2024-06-30T03:00:00:Z","depth":0,"parameterNumber":3,"parameterNumberName":"V-component_of_WINDS"},"data":[0,0,0,0,0,0,0,0,0,0,0,0,0,0,0,0,0,0,0,0,0,0,0,0,0,0,0,0,0,0,0,0,0,0,0,0,0,0,0,0,0,0,0,0,0,0,0,0,0,0,0,0,0,0,0,0,0,0,-0.5383,-0.5384,0,-0.5407,-0.5407,-0.5407,-0.5427,-0.5427,-0.5427,-0.5427,-0.5451,-0.5451,-0.5451,0,0,0,0,0,0,0,0,0,0,0,0,0,-0.5357,-0.5358,-0.5383,-0.5384,-0.5384,-0.5407,-0.5407,-0.5407,-0.5427,-0.5427,-0.5427,-0.5428,-0.5451,-0.5451,-0.5452,0,0,0,0,0,0,0,0,0,0,0,0,0,-0.5373,-0.5358,-0.5383,-0.5397,-0.5398,-0.5406,-0.5407,-0.5407,-0.5427,-0.5427,-0.5427,-0.5428,-0.545,-0.5451,-0.5452,-0.5449,0,0,-0.5453,-0.5454,0,0,0,0,0,0,0,0,-0.5372,-0.5374,-0.5394,-0.5396,-0.5397,-0.5414,-0.5406,-0.5421,-0.5427,-0.5416,-0.5427,-0.5428,-0.5438,-0.544,-0.5443,-0.545,-0.5451,-0.5454,-0.5454,-0.5454,-0.5454,0,0,0,0,0,0,0,-0.5371,-0.5373,-0.5393,-0.5395,-0.5396,-0.5402,-0.5404,-0.5409,-0.5425,-0.5417,-0.5418,-0.5421,-0.5439,-0.5443,-0.5444,-0.5451,-0.5454,-0.5454,-0.5454,-0.5455,-0.5459,-0.5459,0,0,0,0,0,0,-0.5368,-0.5372,-0.5392,-0.5393,-0.5385,-0.5402,-0.5405,-0.5408,-0.5425,-0.5428,-0.542,-0.5422,-0.5442,-0.5443,-0.5445,-0.5444,-0.5454,-0.5455,-0.5455,-0.5459,-0.5459,-0.5459,0,0,0,0,0,0,-0.5367,-0.537,-0.5391,-0.5383,-0.5386,-0.5402,-0.5406,-0.5409,-0.5412,-0.5428,-0.5431,-0.5421,-0.5442,-0.5444,-0.5448,-0.5445,-0.5455,-0.5456,-0.546,-0.5459,-0.5459,-0.5442,0,0,0,0,0,0,-0.5367,-0.5369,-0.5368,-0.5383,-0.5387,-0.5393,-0.5406,-0.5409,-0.5413,-0.5415,-0.5429,-0.5432,-0.5442,-0.5447,-0.5449,-0.5446,-0.5456,-0.546,-0.5459,-0.5459,-0.5443,-0.5441,-0.544,0,0,0,0,0,-0.5366,-0.5362,-0.5368,-0.537,-0.5385,-0.5393,-0.5395,-0.5407,-0.5413,-0.5412,-0.5423,-0.5431,-0.5445,-0.5448,-0.545,-0.5447,-0.546,-0.546,-0.5459,-0.5444,-0.5441,-0.544,0,0,0,0,0,0,-0.5345,-0.5364,-0.5371,-0.5372,-0.5381,-0.5396,-0.5396,-0.5404,-0.5412,-0.5413,-0.5428,-0.5431,-0.5434,-0.5441,-0.5443,-0.5447,-0.5454,-0.5454,-0.5442,-0.544,-0.5438,-0.5437,-0.5457,0,0,0,0,0,-0.5341,-0.5346,-0.5362,-0.5361,-0.5365,-0.538,-0.5383,-0.5392,-0.5402,-0.5406,-0.5416,-0.5426,-0.5433,-0.5437,-0.5443,-0.5444,-0.5448,-0.5444,-0.5442,-0.5441,-0.544,-0.5443,-0.5442,-0.5457,-0.5457,-0.5457,0,0,-0.5332,-0.5343,-0.5344,-0.5357,-0.5365,-0.537,-0.5383,-0.5387,-0.5391,-0.5407,-0.5412,-0.542,-0.5431,-0.5434,-0.5436,-0.544,-0.5437,-0.544,-0.5439,-0.5439,-0.5442,-0.5441,-0.544,-0.5456,-0.5456,-0.5456,0,0,-0.5318,-0.5326,-0.5328,-0.5336,-0.5348,-0.5358,-0.5359,-0.5373,-0.538,-0.5385,-0.5397,-0.5403,-0.5413,-0.5422,-0.5427,-0.5419,-0.5428,-0.5421,-0.5412,-0.5415,-0.5413,-0.5412,-0.5411,-0.541,-0.542,-0.542,-0.542,0,-0.5305,-0.5313,-0.5327,-0.5331,-0.5337,-0.5352,-0.5354,-0.5361,-0.5375,-0.5379,-0.5384,-0.5399,-0.5408,-0.5414,-0.5412,-0.5415,-0.5417,-0.5419,-0.5412,-0.5412,-0.5411,-0.5409,-0.5409,-0.5419,-0.542,-0.542,-0.542,0,-0.5298,-0.5303,-0.5303,-0.5317,-0.5322,-0.5325,-0.534,-0.5344,-0.5353,-0.5363,-0.5369,-0.538,-0.5391,-0.5393,-0.5401,-0.54,-0.5403,-0.541,-0.5418,-0.5408,-0.5407,-0.5407,-0.5418,-0.5419,-0.5419,-0.5419,0,0,-0.5271,-0.5294,-0.5293,-0.5301,-0.5316,-0.5321,-0.5325,-0.5336,-0.534,-0.5349,-0.5354,-0.5364,-0.5371,-0.5377,-0.5387,-0.5389,-0.5384,-0.5396,-0.5397,-0.5394,-0.5385,-0.538,-0.5379,-0.539,-0.539,-0.539,-0.5385,0,-0.526,-0.5269,-0.5282,-0.5287,-0.5293,-0.5308,-0.5312,-0.5323,-0.5332,-0.5339,-0.535,-0.5357,-0.5365,-0.537,-0.5372,-0.5384,-0.5382,-0.5384,-0.5395,-0.5395,-0.5392,-0.5379,-0.5373,-0.5368,-0.5384,-0.5384,-0.5384,0,-0.5249,-0.5259,-0.5264,-0.5281,-0.5284,-0.5287,-0.5299,-0.5305,-0.5318,-0.5325,-0.5333,-0.5344,-0.535,-0.5357,-0.5367,-0.5368,-0.5373,-0.538,-0.538,-0.5381,-0.5389,-0.5381,-0.5366,-0.5366,-0.5383,-0.5383,-0.5383,0,-0.5231,-0.5245,-0.525,-0.5256,-0.5276,-0.5278,-0.5286,-0.5299,-0.5305,-0.5316,-0.532,-0.5331,-0.5337,-0.5345,-0.5359,-0.5363,-0.5367,-0.5375,-0.5374,-0.5374,-0.5374,-0.5374,-0.5361,-0.5377,-0.5377,-0.5377,-0.5377,0,-0.5218,-0.5221,-0.5243,-0.5246,-0.525,-0.5266,-0.527,-0.5279,-0.5291,-0.5297,-0.5311,-0.5317,-0.5334,-0.5342,-0.5353,-0.536,-0.5362,-0.5368,-0.5371,-0.5368,-0.5367,-0.5371,-0.5372,-0.5377,-0.5377,-0.5377,-0.5377,0,-0.5198,-0.5212,-0.522,-0.5238,-0.5243,-0.5245,-0.5261,-0.5266,-0.5277,-0.5284,-0.5287,-0.5304,-0.5314,-0.5329,-0.5343,-0.5351,-0.5356,-0.5361,-0.5352,-0.5354,-0.5352,-0.5353,-0.5342,-0.5342,-0.5357,-0.5357,-0.5357,0,-0.5189,-0.5192,-0.5211,-0.5217,-0.5225,-0.5233,-0.5239,-0.5256,-0.5262,-0.5278,-0.528,-0.5292,-0.5302,-0.5317,-0.5331,-0.5343,-0.5348,-0.5343,-0.5349,-0.5346,-0.5349,-0.5349,-0.535,-0.5342,-0.5342,-0.5341,-0.5341,0,-0.5172,-0.518,-0.5189,-0.5201,-0.5209,-0.522,-0.523,-0.5234,-0.5253,-0.5259,-0.527,-0.5278,-0.5293,-0.5305,-0.5318,-0.5327,-0.5338,-0.5339,-0.534,-0.5336,-0.5332,-0.5335,-0.5349,-0.534,-0.534,-0.534,-0.534,-0.534,-0.5159,-0.5162,-0.5177,-0.5187,-0.5198,-0.5208,-0.5213,-0.5226,-0.5235,-0.5249,-0.5258,-0.5269,-0.5283,-0.5302,-0.5311,-0.532,-0.5324,-0.5325,-0.5325,-0.5325,-0.5324,-0.533,-0.5322,-0.5323,-0.5323,-0.5323,-0.5323,0,-0.5144,-0.5154,-0.5163,-0.5179,-0.5187,-0.5197,-0.521,-0.5216,-0.5226,-0.5238,-0.5248,-0.5261,-0.5273,-0.5288,-0.5301,-0.5306,-0.5311,-0.5308,-0.5308,-0.5311,-0.5319,-0.5318,-0.5304,-0.5304,-0.5304,-0.5304,-0.5304,-0.5304,-0.5137,-0.5144,-0.5154,-0.5167,-0.5178,-0.5189,-0.5195,-0.5205,-0.5216,-0.523,-0.524,-0.525,-0.5264,-0.5278,-0.529,-0.5294,-0.5298,-0.5295,-0.5301,-0.5308,-0.531,-0.5311,-0.531,-0.5296,-0.5296,-0.5292,-0.5292,-0.5292]}]]